Weather in Rikasikha

Russia / Arkhangel'skaya Oblast'     64°32′18″N   40°09′40″E
temp.,
°C
wind,
m/s
gust,
m/s
humid.,
%
clouds,
%
prec.,
mm/h
press.,
hPa
HPBL,
m
7 march, sun
sun700:00−15se379585 0.0 999186
03:00−14se4119589 0.0 998276
06:00−14ese51194100 0.0 996316
09:00−14e51292100 0.0 997381
12:00−12e51091100 0.0 999397
15:00−10ene5108792 0.0 1001524
18:00−13ene4119184 0.0 1003401
21:00−18ene4109370 0.0 1005301
8 march, mon
mon800:00−22ne38950 0.0 1006214
03:00−25nne27950 0.0 1008149
06:00−27nne25960 0.0 100986
09:00−26nne26940 0.0 1011255
12:00−23n359245 0.0 1013374
15:00−22n369070 0.0 1014466
18:00−25n239592 0.0 101576
21:00−29n239557 0.0 101743
9 march, tue
tue900:00−32n22951 0.0 101819
03:00−32n12953 0.0 102019
06:00−33nnw11950 0.0 102019
09:00−28sw119346 0.0 102065
12:00−22w1390100 0.1 1021255
15:00−20nw2594100 0.2 1021410
18:00−22w2298100 0.0 102120
21:00−23wsw239999 0.1 102144
10 march, wed
wed1000:00−21wsw2498100 0.0 1021105
03:00−18w2498100 0.1 102191
06:00−14wnw3797100 0.1 1021245
09:00−14nw3896100 0.1 1022287
12:00−11nw4892100 0.1 1022411
15:00−11nw488672 0.1 1023405
18:00−14wnw310880 0.0 1023222
21:00−16w35930 0.0 102390
11 march, thu
thu1100:00−17w38900 0.0 1023146
03:00−17wsw37910 0.0 1022140
06:00−17wsw310920 0.0 1021236
09:00−15wsw412805 0.0 1020348
12:00−11wsw511760 0.0 1019475
15:00−10wsw5137127 0.0 1019682
18:00−11wsw5147298 0.0 1017566
21:00−12sw5137799 0.0 1016489